| time (UTC) | temp F | wind direction | speed MPH | gust MPH | rain 1hr in | rain 24hr in | rain mn in | humidity % | barometer mb |
| 20260505010303 | 62 | 151 | 1.0 | 5.0 | 0.00 | 0.00 | 0.00 | 50 | 1008.4 |
| 20260505005803 | 62 | 194 | 1.0 | 5.0 | 0.00 | 0.00 | 0.00 | 49 | 1008.3 |
| 20260505005304 | 62 | 172 | 2.0 | 5.0 | 0.00 | 0.00 | 0.00 | 50 | 1008.3 |
| 20260505004803 | 62 | 196 | 1.0 | 5.0 | 0.00 | 0.00 | 0.00 | 49 | 1008.2 |
| 20260505004303 | 62 | 121 | 1.0 | 3.0 | 0.00 | 0.00 | 0.00 | 49 | 1008.2 |
| 20260505003803 | 63 | 195 | 1.0 | 3.0 | 0.00 | 0.00 | 0.00 | 50 | 1008.1 |
| 20260505003303 | 63 | 141 | 0.0 | 3.0 | 0.00 | 0.00 | 0.00 | 49 | 1008.0 |
| 20260505002803 | 63 | 144 | 0.0 | 5.0 | 0.00 | 0.00 | 0.00 | 48 | 1008.0 |
| 20260505002304 | 64 | 161 | 1.0 | 5.0 | 0.00 | 0.00 | 0.00 | 47 | 1007.9 |
| 20260505001303 | 64 | 159 | 2.0 | 3.0 | 0.00 | 0.00 | 0.00 | 46 | 1007.7 |
| 20260505000803 | 64 | 98 | 0.0 | 3.0 | 0.00 | 0.00 | 0.00 | 46 | 1007.7 |
| 20260505000304 | 65 | 197 | 1.0 | 3.0 | 0.00 | 0.00 | 0.00 | 45 | 1007.7 |
| 20260504235804 | 65 | 157 | 1.0 | 10.0 | 0.00 | 0.00 | 0.00 | 45 | 1007.7 |
| 20260504235304 | 66 | 189 | 2.0 | 10.0 | 0.00 | 0.00 | 0.00 | 44 | 1007.7 |
| 20260504233303 | 67 | 189 | 4.0 | 10.0 | 0.00 | 0.00 | 0.00 | 41 | 1007.6 |
| 20260504232803 | 68 | 207 | 2.0 | 10.0 | 0.00 | 0.00 | 0.00 | 41 | 1007.5 |
| 20260504232304 | 68 | 185 | 2.0 | 6.0 | 0.00 | 0.00 | 0.00 | 42 | 1007.6 |
| 20260504231804 | 68 | 95 | 1.0 | 6.0 | 0.00 | 0.00 | 0.00 | 41 | 1007.5 |
| 20260504231303 | 68 | 206 | 2.0 | 7.0 | 0.00 | 0.00 | 0.00 | 42 | 1007.4 |
| 20260504225804 | 68 | 135 | 3.0 | 10.0 | 0.00 | 0.00 | 0.00 | 39 | 1007.3 |
| 20260504225304 | 69 | 144 | 3.0 | 10.0 | 0.00 | 0.00 | 0.00 | 41 | 1007.2 |
| 20260504224803 | 69 | 176 | 3.0 | 10.0 | 0.00 | 0.00 | 0.00 | 40 | 1007.1 |
| 20260504223803 | 69 | 159 | 5.0 | 12.0 | 0.00 | 0.00 | 0.00 | 39 | 1007.0 |
| 20260504223303 | 69 | 153 | 2.0 | 9.0 | 0.00 | 0.00 | 0.00 | 39 | 1007.0 |
| 20260504222804 | 69 | 164 | 3.0 | 12.0 | 0.00 | 0.00 | 0.00 | 38 | 1007.0 |
| 20260504221803 | 69 | 149 | 3.0 | 12.0 | 0.00 | 0.00 | 0.00 | 38 | 1007.1 |
| 20260504221304 | 70 | 140 | 5.0 | 12.0 | 0.00 | 0.00 | 0.00 | 38 | 1007.1 |
| 20260504220803 | 70 | 150 | 6.0 | 12.0 | 0.00 | 0.00 | 0.00 | 37 | 1007.3 |
| 20260504220303 | 71 | 161 | 5.0 | 12.0 | 0.00 | 0.00 | 0.00 | 36 | 1007.3 |
| 20260504215803 | 70 | 195 | 3.0 | 8.0 | 0.00 | 0.00 | 0.00 | 37 | 1007.3 |
| 20260504215304 | 70 | 121 | 4.0 | 7.0 | 0.00 | 0.00 | 0.00 | 37 | 1007.2 |
| 20260504214804 | 70 | 155 | 5.0 | 7.0 | 0.00 | 0.00 | 0.00 | 38 | 1007.2 |
| 20260504214304 | 70 | 165 | 2.0 | 10.0 | 0.00 | 0.00 | 0.00 | 38 | 1007.3 |
| 20260504213803 | 70 | 133 | 4.0 | 10.0 | 0.00 | 0.00 | 0.00 | 37 | 1007.4 |
| 20260504213303 | 70 | 148 | 3.0 | 10.0 | 0.00 | 0.00 | 0.00 | 37 | 1007.3 |
| 20260504212804 | 71 | 159 | 6.0 | 10.0 | 0.00 | 0.00 | 0.00 | 36 | 1007.3 |
| 20260504212304 | 71 | 211 | 4.0 | 16.0 | 0.00 | 0.00 | 0.00 | 35 | 1007.5 |
| 20260504211804 | 71 | 180 | 2.0 | 16.0 | 0.00 | 0.00 | 0.00 | 36 | 1007.5 |
| 20260504211304 | 70 | 202 | 1.0 | 9.0 | 0.00 | 0.00 | 0.00 | 37 | 1007.5 |
| 20260504210803 | 70 | 135 | 4.0 | 12.0 | 0.00 | 0.00 | 0.00 | 36 | 1007.4 |
| 20260504210303 | 70 | 212 | 3.0 | 12.0 | 0.00 | 0.00 | 0.00 | 37 | 1007.5 |
| 20260504205304 | 70 | 196 | 4.0 | 12.0 | 0.00 | 0.00 | 0.00 | 35 | 1007.6 |
| 20260504204803 | 70 | 202 | 3.0 | 12.0 | 0.00 | 0.00 | 0.00 | 36 | 1007.6 |
| 20260504204304 | 70 | 144 | 3.0 | 14.0 | 0.00 | 0.00 | 0.00 | 37 | 1007.6 |
| 20260504203803 | 70 | 118 | 5.0 | 14.0 | 0.00 | 0.00 | 0.00 | 35 | 1007.9 |
| 20260504203303 | 69 | 154 | 3.0 | 13.0 | 0.00 | 0.00 | 0.00 | 37 | 1008.0 |
| 20260504202803 | 70 | 166 | 6.0 | 13.0 | 0.00 | 0.00 | 0.00 | 38 | 1008.0 |
| 20260504202305 | 69 | 171 | 3.0 | 13.0 | 0.00 | 0.00 | 0.00 | 37 | 1008.0 |
| 20260504201803 | 69 | 156 | 3.0 | 13.0 | 0.00 | 0.00 | 0.00 | 36 | 1008.0 |
| 20260504201304 | 69 | 185 | 5.0 | 20.0 | 0.00 | 0.00 | 0.00 | 36 | 1008.0 |
| 20260504200803 | 69 | 157 | 5.0 | 21.0 | 0.00 | 0.00 | 0.00 | 38 | 1008.1 |
| 20260504200303 | 68 | 231 | 9.0 | 21.0 | 0.00 | 0.00 | 0.00 | 37 | 1008.1 |
| 20260504195304 | 68 | 179 | 3.0 | 15.0 | 0.00 | 0.00 | 0.00 | 37 | 1008.2 |
| 20260504194803 | 68 | 193 | 6.0 | 15.0 | 0.00 | 0.00 | 0.00 | 37 | 1008.4 |
| 20260504194304 | 69 | 127 | 2.0 | 20.0 | 0.00 | 0.00 | 0.00 | 38 | 1008.4 |
| 20260504193803 | 68 | 150 | 5.0 | 20.0 | 0.00 | 0.00 | 0.00 | 39 | 1008.6 |
| 20260504193303 | 68 | 180 | 6.0 | 20.0 | 0.00 | 0.00 | 0.00 | 38 | 1008.6 |
| 20260504192803 | 69 | 207 | 4.0 | 14.0 | 0.00 | 0.00 | 0.00 | 38 | 1008.7 |
| 20260504192304 | 68 | 209 | 5.0 | 14.0 | 0.00 | 0.00 | 0.00 | 39 | 1008.7 |
| 20260504191803 | 68 | 162 | 5.0 | 14.0 | 0.00 | 0.00 | 0.00 | 38 | 1008.7 |
| 20260504190804 | 68 | 229 | 7.0 | 16.0 | 0.00 | 0.00 | 0.00 | 39 | 1008.8 |
| 20260504190304 | 68 | 181 | 6.0 | 16.0 | 0.00 | 0.00 | 0.00 | 41 | 1008.8 |
| 20260504184804 | 66 | 210 | 7.0 | 17.0 | 0.00 | 0.00 | 0.00 | 40 | 1009.2 |
| 20260504183804 | 66 | 169 | 5.0 | 14.0 | 0.00 | 0.00 | 0.00 | 39 | 1009.2 |
| 20260504183304 | 67 | 171 | 6.0 | 12.0 | 0.00 | 0.00 | 0.00 | 39 | 1009.3 |
| 20260504182304 | 66 | 165 | 6.0 | 12.0 | 0.00 | 0.00 | 0.00 | 39 | 1009.3 |
| 20260504181804 | 66 | 166 | 2.0 | 12.0 | 0.00 | 0.00 | 0.00 | 41 | 1009.2 |
| 20260504180803 | 66 | 144 | 10.0 | 20.0 | 0.00 | 0.00 | 0.00 | 41 | 1009.4 |
| 20260504180304 | 65 | 167 | 4.0 | 16.0 | 0.00 | 0.00 | 0.00 | 40 | 1009.3 |
| 20260504175804 | 65 | 202 | 7.0 | 20.0 | 0.00 | 0.00 | 0.00 | 39 | 1009.4 |
| 20260504175304 | 66 | 225 | 9.0 | 20.0 | 0.00 | 0.00 | 0.00 | 38 | 1009.4 |
| 20260504174804 | 66 | 228 | 8.0 | 20.0 | 0.00 | 0.00 | 0.00 | 40 | 1009.4 |
| 20260504174303 | 66 | 261 | 6.0 | 14.0 | 0.00 | 0.00 | 0.00 | 38 | 1009.6 |
| 20260504173803 | 66 | 147 | 2.0 | 14.0 | 0.00 | 0.00 | 0.00 | 38 | 1009.6 |
| 20260504172802 | 65 | 237 | 9.0 | 14.0 | 0.00 | 0.00 | 0.00 | 40 | 1009.6 |
| 20260504172304 | 65 | 223 | 7.0 | 14.0 | 0.00 | 0.00 | 0.00 | 40 | 1009.7 |
| 20260504171802 | 65 | 215 | 5.0 | 15.0 | 0.00 | 0.00 | 0.00 | 41 | 1009.7 |
| 20260504171303 | 65 | 240 | 7.0 | 15.0 | 0.00 | 0.00 | 0.00 | 40 | 1009.7 |
| 20260504170802 | 65 | 168 | 4.0 | 15.0 | 0.00 | 0.00 | 0.00 | 43 | 1009.8 |
| 20260504170303 | 64 | 211 | 7.0 | 18.0 | 0.00 | 0.00 | 0.00 | 41 | 1010.1 |
| 20260504160303 | 63 | 202 | 10.0 | 16.0 | 0.00 | 0.00 | 0.00 | 43 | 1010.9 |
| 20260504141303 | 58 | 189 | 4.0 | 12.0 | 0.00 | 0.00 | 0.00 | 43 | 1011.8 |
| 20260504140802 | 58 | 195 | 5.0 | 15.0 | 0.00 | 0.00 | 0.00 | 42 | 1012.0 |
| 20260504140303 | 58 | 150 | 6.0 | 15.0 | 0.00 | 0.00 | 0.00 | 43 | 1012.0 |
| 20260504130803 | 52 | 228 | 1.0 | 5.0 | 0.00 | 0.00 | 0.00 | 53 | 1012.4 |
| 20260504130303 | 52 | 234 | 1.0 | 6.0 | 0.00 | 0.00 | 0.00 | 53 | 1012.4 |
| 20260504120303 | 42 | 314 | 0.0 | 0.0 | 0.00 | 0.00 | 0.00 | 79 | 1012.9 |
| 20260504110303 | 33 | 314 | 0.0 | 1.0 | 0.00 | 0.00 | 0.00 | 86 | 1013.0 |
| 20260504100303 | 31 | 314 | 0.0 | 1.0 | 0.00 | 0.00 | 0.00 | 85 | 1012.7 |
| 20260504081803 | 33 | 299 | 0.0 | 0.0 | 0.00 | 0.00 | 0.00 | 83 | 1012.9 |
| 20260504080803 | 33 | 299 | 0.0 | 2.0 | 0.00 | 0.00 | 0.00 | 83 | 1013.0 |
| 20260504080303 | 33 | 299 | 0.0 | 2.0 | 0.00 | 0.00 | 0.00 | 82 | 1012.9 |
| 20260504070303 | 34 | 302 | 0.0 | 0.0 | 0.00 | 0.00 | 0.00 | 81 | 1012.9 |
| 20260504045803 | 37 | 302 | 0.0 | 0.0 | 0.00 | 0.00 | 0.00 | 77 | 1012.7 |
| 20260504045304 | 37 | 302 | 0.0 | 0.0 | 0.00 | 0.00 | 0.00 | 76 | 1012.7 |
| 20260504044803 | 37 | 302 | 0.0 | 0.0 | 0.00 | 0.00 | 0.00 | 76 | 1012.7 |
| 20260504044303 | 37 | 302 | 0.0 | 2.0 | 0.00 | 0.00 | 0.00 | 75 | 1012.7 |
| 20260504043804 | 37 | 302 | 0.0 | 2.0 | 0.00 | 0.00 | 0.00 | 75 | 1012.7 |
| 20260504042803 | 37 | 302 | 0.0 | 0.0 | 0.00 | 0.00 | 0.00 | 74 | 1012.6 |
| 20260504042304 | 37 | 302 | 0.0 | 0.0 | 0.00 | 0.00 | 0.00 | 74 | 1012.5 |
| 20260504041803 | 37 | 302 | 0.0 | 2.0 | 0.00 | 0.00 | 0.00 | 75 | 1012.5 |
| 20260504040303 | 37 | 302 | 0.0 | 0.0 | 0.00 | 0.00 | 0.00 | 73 | 1012.4 |
| 20260504035804 | 38 | 302 | 0.0 | 0.0 | 0.00 | 0.00 | 0.00 | 73 | 1012.4 |
| 20260504035304 | 38 | 302 | 0.0 | 2.0 | 0.00 | 0.00 | 0.00 | 73 | 1012.3 |
| 20260504034303 | 38 | 302 | 0.0 | 1.0 | 0.00 | 0.00 | 0.00 | 74 | 1012.3 |
| 20260504033803 | 38 | 292 | 0.0 | 0.0 | 0.00 | 0.00 | 0.00 | 72 | 1012.3 |
| 20260504033303 | 38 | 292 | 0.0 | 0.0 | 0.00 | 0.00 | 0.00 | 72 | 1012.3 |
| 20260504032803 | 38 | 292 | 0.0 | 0.0 | 0.00 | 0.00 | 0.00 | 72 | 1012.3 |
| 20260504032304 | 38 | 292 | 0.0 | 0.0 | 0.00 | 0.00 | 0.00 | 72 | 1012.3 |
| 20260504031803 | 38 | 292 | 0.0 | 0.0 | 0.00 | 0.00 | 0.00 | 71 | 1012.2 |
| 20260504031303 | 39 | 292 | 0.0 | 0.0 | 0.00 | 0.00 | 0.00 | 71 | 1012.3 |
| 20260504030803 | 39 | 292 | 0.0 | 0.0 | 0.00 | 0.00 | 0.00 | 71 | 1012.4 |
| 20260504030303 | 39 | 292 | 0.0 | 0.0 | 0.00 | 0.00 | 0.00 | 70 | 1012.3 |
| 20260504025804 | 39 | 292 | 0.0 | 0.0 | 0.00 | 0.00 | 0.00 | 70 | 1012.3 |
| 20260504024303 | 40 | 292 | 0.0 | 0.0 | 0.00 | 0.00 | 0.00 | 67 | 1012.3 |
| 20260504023803 | 40 | 292 | 0.0 | 0.0 | 0.00 | 0.00 | 0.00 | 68 | 1012.3 |
| 20260504023303 | 40 | 292 | 0.0 | 0.0 | 0.00 | 0.00 | 0.00 | 67 | 1012.4 |
| 20260504022803 | 41 | 279 | 0.0 | 0.0 | 0.00 | 0.00 | 0.00 | 67 | 1012.3 |
| 20260504022304 | 41 | 279 | 0.0 | 0.0 | 0.00 | 0.00 | 0.00 | 67 | 1012.4 |
| 20260504021804 | 41 | 279 | 0.0 | 0.0 | 0.00 | 0.00 | 0.00 | 67 | 1012.3 |
| 20260504021303 | 41 | 279 | 0.0 | 0.0 | 0.00 | 0.00 | 0.00 | 66 | 1012.3 |
| 20260504020804 | 42 | 273 | 0.0 | 0.0 | 0.00 | 0.00 | 0.00 | 66 | 1012.3 |
| 20260504020303 | 42 | 251 | 0.0 | 0.0 | 0.00 | 0.00 | 0.00 | 65 | 1012.4 |
| 20260504015803 | 42 | 243 | 0.0 | 0.0 | 0.00 | 0.00 | 0.00 | 64 | 1012.3 |
| 20260504014803 | 43 | 233 | 0.0 | 0.0 | 0.00 | 0.00 | 0.00 | 64 | 1012.2 |
| 20260504014303 | 43 | 218 | 0.0 | 0.0 | 0.00 | 0.00 | 0.00 | 64 | 1012.1 |
| 20260504013803 | 44 | 212 | 0.0 | 0.0 | 0.00 | 0.00 | 0.00 | 63 | 1012.0 |
| 20260504013303 | 44 | 212 | 0.0 | 0.0 | 0.00 | 0.00 | 0.00 | 63 | 1011.8 |
| 20260504012304 | 45 | 196 | 0.0 | 0.0 | 0.00 | 0.00 | 0.00 | 62 | 1011.7 |
| 20260504011803 | 46 | 196 | 0.0 | 0.0 | 0.00 | 0.00 | 0.00 | 62 | 1011.6 |
| 20260504011303 | 46 | 196 | 0.0 | 0.0 | 0.00 | 0.00 | 0.00 | 61 | 1011.5 |